Starlink 32583

operational
NORAD ID: 61955 Int'l Des: 2024-209 Owner: SPXS Country: US Constellation: starlink
LEOCIRCULAR

Starlink 32583について

説明を読み込み中...

リアルタイム位置

3D地球を読み込み中...

次回通過

高度履歴

Altitude vs Time

uPlot chart will show altitude changes over time

軌道要素

1 61955U 24209S 26095.06867414 .00037032 00000-0 12577-2 0 9990
2 61955 53.1603 20.0131 0001227 113.3845 246.7285 15.30161674 78957
Epoch: Apr 5, 2026 • Age: 14 hours

現在のステータス

高度 479.1 km
速度 7.63 km/s
衛星直下点 43.48°N, 11.97°W
打ち上げ日 Nov 14, 2024
運用期間 1.3 years
タイプ internet

技術仕様

分類 Payload
質量 730.00 kg
乾燥質量 700.00 kg
総質量 730.00 kg
長さ 0.30 m
直径 4.10 m
スパン 29.00 m
形状 Box + pan
製造者 SPXS
バスタイプ Starlink V2M
フェーズステータス In Orbit
所有者/国 SPXS/US

大規模コンステレーション

Loading constellations...